Flag for Canada Weather past 2 weeks in Whistler, British Columbia, Canada

Now
75 °F

Mild.


Feels Like: 77 °F
Forecast: 52 / 90 °F
Wind: 1 mph from South

Location: Squamish Airport

Current Time: Jul 31, 2014 at 9:21:14 PM

Latest Report: Jul 31, 2014 at 8:00 PM


Visibility: N/A

Pressure: 29.96 "Hg

Humidity: 59%

Dew point: 60 °F

Location of WhistlerLocation

Historic Weather in Whistler — Graph

°F

Whistler temperature yesterday

Maximum temperature yesterday: 82 °F (at 4:00 PM)
Minimum temperature yesterday: 54 °F (at 7:00 AM)
Average temperature yesterday: 68 °F

Past Weeks' High & Low Weather Summary

 TemperatureHumidityPressure
High85 °F (Jul 31, 5:00 PM)100% (Jul 26, 6:00 AM)30.19 "Hg (Jul 26, 6:00 AM)
Low49 °F (Jul 26, 6:00 AM)35% (Jul 28, 5:00 PM)29.83 "Hg (Jul 16, 8:00 PM)
Average65 °F73%30.01 "Hg
* Reported Jul 16 8:00 PM — Jul 31 8:00 PM, Whistler, Weather by CustomWeather, © 2014

Note: Actual official high and low records may vary slightly from our data, if they occured in-between our weather recording intervals... More about our weather records

Advertising

Whistler weather history for previous 24 hours

 ConditionsComfort  
Time TempWeatherWind HumidityBarometerVisibility
8:00 PM
Jul 31
75 °FMild.1 mph59%29.96 "HgN/A
7:00 PM82 °FWarm.5 mph41%29.96 "HgN/A
6:00 PM84 °FPleasantly warm.6 mph38%29.97 "HgN/A
5:00 PM85 °FWarm.7 mph41%29.98 "HgN/A
4:00 PM84 °FWarm.8 mph43%30.00 "HgN/A
3:00 PM84 °FWarm.8 mph45%30.01 "HgN/A
2:00 PM80 °FWarm.9 mph44%30.03 "HgN/A
1:00 PM81 °FWarm.9 mph42%30.04 "HgN/A
12:00 PM80 °FWarm.5 mph42%30.05 "HgN/A
11:00 AM77 °FMild.2 mph45%30.07 "HgN/A
10:00 AM74 °FMild.1 mph52%30.09 "HgN/A
9:00 AM68 °FMild.1 mph66%30.10 "HgN/A
8:00 AM63 °FMild.2 mph80%30.11 "HgN/A
7:00 AM58 °FCool.1 mph92%30.11 "HgN/A
6:00 AM57 °FCool.1 mph92%30.10 "HgN/A
5:00 AM57 °FCool.1 mph93%30.09 "HgN/A
4:00 AM56 °FCool.1 mph96%30.08 "HgN/A
3:00 AM59 °FCool.1 mph91%30.08 "HgN/A
2:00 AM60 °FCool.2 mph90%30.07 "HgN/A
1:00 AM61 °FCool.1 mph87%30.07 "HgN/A
12:00 AM62 °FCool.1 mph87%30.06 "HgN/A
11:00 PM
Jul 30
64 °FMild.No wind82%30.06 "HgN/A
10:00 PM66 °FMild.No wind79%30.04 "HgN/A
9:00 PM69 °FMild.1 mph73%30.03 "HgN/A
Weather by CustomWeather, © 2014

See weather overviewHow to use our weather pages